Total_Precipitation_Accumulation
2.77 2.76 2.78 2.65 2.35 1.97 1.70 1.79 1.92 1.88 1.93 1.93 1.94 1.90 2.12 2.53 3.43 5.02 4.49 3.34 4.39 4.38 2.13 1.04 0.85 0.93 0.90 1.22 1.75 1.42 1.77 1.62 1.95 2.10 1.59 1.13 0.71 0.44 0.42 0.30 0.39 0.58 1.16 1.26 1.49 2.23 1.23 0.36 0.54 0.98 1.07 0.79 0.56 0.45
2.88 2.54 2.27 2.31 2.20 1.98 1.63 1.61 1.62 1.72 1.79 1.77 1.79 1.91 2.04 2.63 3.69 5.08 4.85 3.25 3.85 4.79 3.19 1.38 0.82 0.74 0.65 0.77 1.44 1.88 1.56 1.26 1.33 1.62 1.51 1.25 1.00 0.72 0.53 0.85 0.46 0.88 0.78 1.00 1.07 0.89 0.70 0.63 0.91 0.78 0.74 0.81 0.46 0.31
3.10 2.39 1.92 1.94 1.89 1.60 1.48 1.42 1.43 1.61 1.72 1.72 2.00 2.21 2.55 2.68 3.56 5.55 4.68 3.11 5.98 6.49 3.50 1.59 1.07 0.65 0.55 0.55 0.88 1.75 1.16 1.21 1.55 1.57 1.83 1.76 1.34 0.69 0.67 0.58 0.69 0.96 0.88 1.19 1.38 1.12 1.09 1.15 0.67 0.42 0.55 0.56 0.40 0.29
3.18 2.55 1.96 1.96 1.87 1.49 1.52 1.53 1.40 1.56 1.79 1.87 2.14 2.69 2.83 3.25 3.72 5.45 5.00 3.56 5.45 5.08 3.86 1.93 0.98 0.92 0.70 0.55 0.52 0.59 0.69 0.85 1.26 1.79 2.21 2.02 1.26 0.67 0.75 0.82 0.93 0.96 1.40 1.73 2.28 1.59 1.27 1.07 0.97 0.78 0.48 0.22 0.24 0.39
3.18 2.57 2.12 2.04 1.95 1.66 1.56 1.57 1.51 1.68 1.93 2.16 2.31 2.62 3.15 3.56 4.49 5.59 4.60 3.54 3.54 3.97 3.91 2.03 0.85 0.77 0.77 0.73 0.66 0.79 0.92 1.17 1.56 2.11 2.32 1.39 0.81 0.78 0.67 0.85 0.62 0.29 0.83 1.79 2.21 1.42 1.42 1.11 0.54 0.41 0.39 0.36 0.24 0.12
3.02 2.58 2.45 2.22 2.03 1.79 1.65 1.70 1.79 1.86 1.97 2.31 2.42 2.85 3.24 4.00 5.78 7.43 9.70 5.81 3.10 3.58 4.31 2.81 1.54 0.85 0.87 0.99 1.01 1.05 1.16 1.55 1.89 1.94 1.61 1.07 0.62 1.35 1.55 1.05 0.42 0.22 0.29 0.52 1.00 1.17 1.11 0.87 0.51 0.32 0.28 0.14 0.05 0.08
2.91 2.65 2.69 2.49 2.36 2.17 2.05 2.02 2.02 1.95 2.25 2.71 2.95 3.36 3.92 5.16 5.31 5.19 5.03 3.02 2.13 3.33 5.13 3.29 1.95 0.87 0.79 1.24 1.51 1.48 1.57 1.80 1.74 1.82 1.25 0.70 0.67 1.64 2.01 1.01 0.50 0.33 0.37 0.52 0.58 0.84 0.65 0.33 0.26 0.12 0.04 0.02 0.03 0.03
2.63 2.36 2.08 1.92 1.96 2.12 2.28 2.27 2.17 2.16 2.86 3.30 3.95 4.55 5.46 6.21 6.08 4.28 1.85 1.45 1.99 3.64 3.70 2.90 2.10 1.56 1.16 1.44 2.01 1.83 2.04 1.92 2.01 1.70 1.07 0.69 0.89 1.31 1.28 0.30 0.09 0.15 0.26 0.35 0.39 0.35 0.33 0.20 0.07 0.03 0.02 0.04 0.07 0.10
2.44 2.08 1.81 1.63 1.68 1.97 2.08 2.10 2.34 3.08 3.42 3.89 4.94 6.75 8.47 7.97 6.89 3.60 2.40 2.67 2.81 3.70 3.27 1.60 1.38 2.04 1.61 1.58 1.84 2.21 2.29 2.40 1.63 1.16 0.64 1.08 1.29 1.31 0.54 0.10 0.07 0.14 0.19 0.13 0.05 0.09 0.12 0.10 0.08 0.06 0.06 0.10 0.18 0.33
2.03 1.69 1.43 1.49 1.68 1.93 1.94 2.24 2.96 3.62 4.09 5.25 7.37 10.26 11.45 6.53 3.15 3.44 5.84 6.70 6.46 4.27 1.84 0.92 0.75 1.78 2.11 2.25 2.05 2.52 2.44 2.12 1.89 0.83 0.83 1.04 0.92 0.66 0.29 0.27 0.31 0.23 0.14 0.07 0.08 0.12 0.15 0.13 0.16 0.19 0.28 0.35 0.41 0.39
1.83 1.48 1.27 1.39 1.58 1.73 1.80 2.17 2.91 3.99 5.81 7.84 9.45 8.53 6.37 4.18 3.89 5.26 6.80 5.98 5.28 3.37 1.19 0.54 0.60 1.43 1.88 2.14 1.93 1.85 2.19 1.90 1.71 1.70 1.44 1.40 1.26 1.33 0.45 0.26 0.12 0.07 0.07 0.09 0.13 0.22 0.24 0.27 0.44 0.52 0.43 0.32 0.26 0.21
1.81 1.28 1.21 1.29 1.52 1.79 1.87 2.14 2.99 4.53 6.07 5.67 5.08 5.75 6.52 5.25 5.26 5.87 4.33 2.94 1.77 1.21 0.46 0.35 0.48 1.00 1.91 2.12 2.32 2.02 2.04 2.02 1.46 1.55 1.94 1.38 1.05 0.44 0.20 0.20 0.26 0.23 0.18 0.13 0.16 0.30 0.38 0.43 0.42 0.35 0.29 0.30 0.33 0.35
1.80 1.39 1.37 1.39 1.75 2.00 2.08 2.67 2.91 3.74 3.59 3.88 4.25 5.46 5.58 4.91 4.44 3.36 2.03 1.52 0.88 0.93 0.53 0.69 0.84 1.15 1.68 2.16 2.53 1.64 1.86 1.95 1.44 1.77 1.30 1.05 0.96 0.66 0.73 1.03 0.96 0.62 0.35 0.32 0.26 0.25 0.26 0.23 0.21 0.28 0.31 0.35 0.33 0.39
1.59 1.22 1.34 1.48 1.82 2.39 2.71 3.16 3.36 3.99 3.40 4.20 4.38 4.25 3.54 3.13 1.96 1.41 0.92 0.81 0.83 0.63 0.49 0.86 0.64 0.79 1.02 1.54 1.97 1.73 1.71 1.52 1.75 1.05 1.28 1.48 1.09 0.90 0.60 0.50 0.43 0.47 0.49 0.51 0.55 0.52 0.49 0.47 0.53 0.59 0.66 0.77 0.72 0.90
1.42 1.27 1.48 1.82 2.17 2.49 2.81 3.03 2.82 2.86 2.97 2.80 2.26 2.21 1.65 1.59 1.18 1.00 0.79 0.69 0.61 0.60 0.78 1.22 1.38 1.39 1.49 1.60 1.36 1.17 1.19 1.01 0.83 1.25 1.54 1.09 0.92 0.76 0.63 0.58 0.61 0.68 0.70 0.68 0.69 0.66 0.74 0.75 0.69 0.89 1.08 0.99 0.80 0.81
1.87 2.09 2.06 2.04 2.18 2.25 2.45 2.63 2.69 2.64 2.14 1.44 1.20 1.23 1.13 1.04 1.02 0.91 0.91 0.91 0.88 1.06 1.36 1.80 2.01 1.70 1.59 1.02 0.80 0.69 0.68 0.85 1.26 1.15 0.80 0.68 0.65 0.65 0.69 0.74 0.86 0.84 0.73 0.68 0.67 0.62 0.62 0.63 0.57 0.64 0.79 0.79 0.69 0.59
2.29 3.13 2.39 1.88 1.89 2.11 2.49 2.70 3.21 2.44 1.87 1.15 1.17 1.06 1.01 0.94 0.99 0.99 0.89 0.86 0.89 1.07 1.42 1.53 1.29 1.07 0.97 0.90 0.83 0.99 1.45 1.62 1.12 0.92 0.87 0.73 0.76 0.82 0.82 0.83 0.86 0.82 0.74 0.67 0.62 0.59 0.61 0.61 0.45 0.31 0.42 0.60 0.47 0.47
2.08 1.60 1.41 1.56 1.91 2.35 2.78 2.12 1.93 1.40 1.37 1.16 1.04 1.22 0.89 0.97 0.98 0.91 0.85 0.66 0.76 0.87 0.88 1.08 0.84 0.68 0.73 0.73 0.91 1.11 1.02 0.94 0.90 0.90 0.92 0.89 0.83 0.88 0.85 0.85 0.88 0.78 0.68 0.62 0.54 0.53 0.55 0.50 0.40 0.47 0.43 0.40 0.28 0.27
1.74 1.47 1.45 1.56 1.53 1.92 2.36 1.67 0.87 0.86 1.14 0.97 0.90 0.78 0.64 0.73 0.72 0.69 0.53 0.47 0.61 0.70 1.04 0.80 0.77 0.71 0.81 1.02 1.14 1.11 1.06 0.93 0.92 0.92 0.87 0.84 0.84 0.83 0.85 0.80 0.73 0.66 0.51 0.51 0.45 0.45 0.47 0.42 0.41 0.36 0.31 0.22 0.21 0.20
1.67 1.49 1.30 0.97 0.51 0.56 0.84 1.00 0.58 0.61 0.71 0.74 0.56 0.39 0.39 0.51 0.39 0.37 0.49 0.48 0.53 1.05 1.36 0.89 0.94 1.07 1.14 1.19 1.05 0.99 0.98 0.85 0.59 0.65 0.82 0.92 0.94 0.72 0.75 0.68 0.64 0.57 0.44 0.42 0.39 0.36 0.27 0.21 0.21 0.21 0.23 0.23 0.21 0.21
1.80 1.90 1.43 0.89 0.57 0.50 0.52 0.39 0.33 0.47 0.42 0.50 0.40 0.23 0.42 0.42 0.49 0.48 0.60 0.47 0.85 1.10 1.14 1.06 1.05 1.16 1.04 1.06 0.92 0.74 0.74 0.53 0.50 0.47 0.53 0.64 0.72 0.55 0.56 0.58 0.54 0.50 0.44 0.42 0.31 0.30 0.23 0.25 0.26 0.23 0.22 0.19 0.18 0.18
1.85 1.59 1.46 0.97 0.61 0.35 0.37 0.11 0.14 0.15 0.18 0.28 0.23 0.20 0.41 0.50 0.51 0.50 0.37 0.47 0.83 0.94 0.97 0.96 1.02 0.83 0.67 0.78 0.81 0.73 0.78 0.58 0.47 0.42 0.41 0.38 0.43 0.44 0.49 0.56 0.46 0.48 0.45 0.44 0.35 0.30 0.24 0.18 0.15 0.16 0.16 0.15 0.15 0.16
0.83 0.78 0.87 0.84 0.65 0.37 0.52 0.17 0.20 0.15 0.19 0.26 0.20 0.17 0.23 0.24 0.32 0.23 0.32 0.46 0.83 0.94 0.81 0.72 0.72 0.59 0.54 0.62 0.43 0.34 0.33 0.30 0.37 0.44 0.43 0.37 0.36 0.38 0.36 0.42 0.45 0.47 0.45 0.46 0.39 0.36 0.31 0.26 0.20 0.17 0.15 0.15 0.19 0.24
0.47 0.79 0.94 0.72 0.51 0.37 0.43 0.34 0.24 0.16 0.17 0.16 0.16 0.16 0.16 0.18 0.20 0.16 0.28 0.51 0.78 0.57 0.42 0.39 0.35 0.32 0.26 0.19 0.22 0.25 0.23 0.15 0.16 0.20 0.25 0.19 0.20 0.26 0.22 0.22 0.24 0.28 0.31 0.32 0.32 0.35 0.34 0.35 0.32 0.33 0.30 0.30 0.34 0.35
0.72 0.70 0.66 0.43 0.30 0.17 0.20 0.21 0.25 0.15 0.15 0.12 0.12 0.15 0.14 0.10 0.17 0.17 0.29 0.67 0.52 0.50 0.41 0.33 0.24 0.21 0.23 0.26 0.23 0.19 0.15 0.12 0.11 0.11 0.16 0.16 0.17 0.16 0.13 0.11 0.12 0.14 0.16 0.24 0.26 0.29 0.32 0.31 0.36 0.40 0.40 0.44 0.47 0.49
0.73 0.39 0.29 0.15 0.11 0.13 0.09 0.10 0.11 0.12 0.12 0.15 0.16 0.17 0.14 0.16 0.18 0.27 0.48 0.67 0.53 0.44 0.42 0.39 0.33 0.26 0.24 0.18 0.19 0.18 0.15 0.14 0.13 0.10 0.13 0.09 0.11 0.18 0.22 0.15 0.12 0.14 0.16 0.24 0.34 0.35 0.27 0.27 0.34 0.35 0.44 0.43 0.44 0.51
0.39 0.22 0.09 0.07 0.10 0.16 0.17 0.15 0.17 0.19 0.20 0.23 0.26 0.19 0.25 0.25 0.35 0.64 0.68 0.54 0.48 0.43 0.31 0.27 0.23 0.22 0.22 0.18 0.16 0.18 0.16 0.12 0.13 0.13 0.08 0.06 0.08 0.17 0.37 0.45 0.44 0.33 0.16 0.18 0.25 0.34 0.43 0.42 0.41 0.39 0.45 0.49 0.51 0.58
0.20 0.12 0.15 0.23 0.29 0.27 0.32 0.31 0.32 0.36 0.47 0.49 0.29 0.26 0.31 0.37 0.65 0.82 0.64 0.53 0.46 0.26 0.18 0.15 0.12 0.12 0.10 0.12 0.19 0.26 0.28 0.24 0.20 0.20 0.20 0.22 0.26 0.38 0.39 0.37 0.29 0.22 0.20 0.23 0.29 0.36 0.47 0.55 0.54 0.50 0.49 0.52 0.57 0.60
0.22 0.25 0.24 0.27 0.28 0.28 0.34 0.38 0.44 0.44 0.38 0.34 0.41 0.43 0.43 0.52 0.75 0.65 0.51 0.39 0.29 0.18 0.18 0.18 0.26 0.17 0.16 0.16 0.22 0.26 0.29 0.32 0.36 0.32 0.25 0.28 0.41 0.49 0.37 0.31 0.30 0.27 0.29 0.31 0.31 0.36 0.46 0.56 0.54 0.57 0.62 0.58 0.53 0.56
0.19 0.18 0.20 0.18 0.24 0.31 0.50 0.42 0.38 0.26 0.13 0.15 0.20 0.29 0.43 0.93 1.13 0.64 0.39 0.32 0.31 0.31 0.29 0.25 0.26 0.21 0.23 0.20 0.21 0.25 0.30 0.27 0.36 0.50 0.52 0.42 0.41 0.36 0.30 0.31 0.32 0.33 0.34 0.34 0.35 0.33 0.31 0.34 0.40 0.50 0.44 0.41 0.48 0.55
0.22 0.26 0.26 0.25 0.40 0.52 0.57 0.34 0.24 0.19 0.21 0.22 0.20 0.28 0.67 0.91 0.99 0.74 0.50 0.54 0.39 0.27 0.25 0.26 0.23 0.25 0.29 0.30 0.28 0.24 0.27 0.22 0.21 0.22 0.29 0.34 0.33 0.31 0.30 0.25 0.26 0.32 0.33 0.33 0.31 0.31 0.32 0.34 0.39 0.43 0.38 0.43 0.48 0.54
0.33 0.36 0.32 0.37 0.58 0.51 0.44 0.42 0.31 0.36 0.37 0.33 0.49 0.54 0.70 0.70 0.68 0.64 0.69 0.61 0.50 0.34 0.33 0.35 0.34 0.38 0.38 0.37 0.33 0.33 0.31 0.25 0.23 0.27 0.27 0.28 0.29 0.28 0.22 0.20 0.23 0.28 0.29 0.28 0.30 0.34 0.34 0.35 0.39 0.42 0.47 0.52 0.54 0.50
0.25 0.24 0.26 0.30 0.35 0.39 0.38 0.35 0.26 0.32 0.32 0.44 0.73 0.60 0.63 0.60 0.57 0.65 0.58 0.65 0.71 0.52 0.43 0.42 0.47 0.45 0.39 0.32 0.33 0.36 0.34 0.35 0.32 0.30 0.27 0.24 0.24 0.25 0.28 0.27 0.25 0.24 0.26 0.28 0.31 0.32 0.29 0.30 0.33 0.40 0.42 0.42 0.38 0.37